Temp
22 22 24 28 28 30 32 32 32 31 31 31 31 30 30 30 30 28 25 22 22 23 23 20 19 19 19 19 19 19 21 20 18 19 19 19 18 18 18 18 18 18 17 17 17 17 16 16 16
23 25 26 29 29 31 33 32 31 32 31 30 30 30 30 29 30 29 27 23 22 24 22 21 19 19 19 19 19 19 18 19 19 18 18 19 18 18 18 18 18 18 17 17 17 16 16 15 16
23 26 28 30 30 31 32 32 31 31 31 30 30 30 29 29 29 27 23 21 21 22 22 22 20 19 20 19 19 19 19 18 18 18 18 18 18 18 18 17 17 17 17 17 17 16 15 15 16
26 28 29 29 30 32 31 32 32 31 31 31 30 29 30 27 26 25 22 21 21 21 23 21 20 20 20 19 19 19 19 19 18 18 18 18 17 17 17 18 17 17 17 17 16 15 15 16 16
27 30 29 30 31 33 32 32 31 31 30 30 30 29 29 28 24 23 22 21 21 20 22 21 21 20 19 19 19 19 19 18 18 18 18 18 17 17 17 17 17 17 16 16 15 15 15 16 16
28 30 29 30 32 32 32 32 31 30 30 30 29 29 29 25 25 23 20 20 21 19 19 20 19 20 20 19 18 18 19 18 18 18 18 18 17 17 17 17 17 16 16 16 15 15 15 15 16
28 30 29 31 31 32 31 31 30 30 30 30 29 28 29 27 24 23 21 19 20 19 18 18 18 18 19 19 18 16 18 18 18 18 18 18 17 17 16 17 16 16 16 15 15 15 15 15 15
29 30 29 31 30 31 32 30 31 30 30 29 29 28 29 26 23 21 21 21 21 19 17 17 17 17 18 18 18 16 17 18 18 17 17 17 17 17 16 16 16 17 16 16 15 15 15 15 15
30 28 29 31 31 31 31 29 32 31 30 30 29 28 27 24 23 22 22 21 21 19 16 16 16 16 17 17 17 16 16 17 17 17 18 17 17 17 17 16 16 16 16 16 15 15 15 15 15
28 28 29 32 32 31 31 30 31 31 30 30 29 29 25 23 23 23 23 21 19 19 16 16 16 17 16 15 16 15 16 15 17 17 17 16 17 17 17 16 16 16 16 16 15 15 15 15 15
28 28 31 31 31 31 30 30 31 30 29 30 29 29 27 25 24 23 23 21 20 18 17 15 16 16 15 15 15 15 15 15 16 16 17 16 16 17 16 16 16 15 15 14 14 14 16 17 17
28 29 30 31 30 30 29 30 30 30 30 29 28 28 27 26 24 23 23 21 19 19 16 15 15 15 15 16 15 15 15 15 15 15 15 14 16 16 15 15 16 15 15 15 15 16 18 18 17
28 29 30 30 30 29 29 29 29 30 31 29 28 26 26 26 25 23 21 19 18 17 16 15 15 15 14 14 15 15 14 14 14 14 14 14 16 16 16 16 16 16 17 17 17 18 18 18 18
29 29 29 30 30 30 28 29 30 30 31 29 27 26 26 25 24 24 21 20 18 15 14 14 15 14 14 14 13 13 14 14 14 14 13 13 16 17 17 17 18 18 19 18 18 19 18 18 18
28 28 28 29 30 29 29 28 29 31 31 29 28 27 26 25 24 24 23 20 17 17 14 13 14 14 14 14 13 13 14 13 13 13 14 14 16 17 18 18 19 19 19 19 19 18 18 18 18
27 27 27 29 30 30 29 27 30 31 29 29 29 28 26 25 25 24 22 21 17 15 15 13 13 13 13 13 13 13 13 13 12 13 13 15 16 17 18 19 19 19 19 19 19 18 19 19 19
26 26 27 28 31 30 29 28 30 30 29 29 29 29 27 26 25 24 23 21 18 15 14 14 13 13 13 12 13 13 13 13 13 13 15 16 16 16 17 18 18 19 19 19 19 18 19 19 19
26 27 27 28 30 29 29 28 29 31 29 29 29 29 28 27 26 24 22 21 19 15 13 13 13 12 12 12 12 12 12 12 12 13 14 15 15 16 17 17 17 18 18 18 18 18 18 19 19
27 28 28 29 30 29 28 29 30 31 31 30 29 29 29 28 27 25 21 20 19 17 14 14 13 12 12 12 12 12 12 12 13 14 14 15 15 15 16 16 17 17 18 18 18 18 18 18 19
26 26 27 29 29 27 28 29 30 31 31 31 30 30 29 28 27 25 22 19 19 17 14 13 13 12 12 12 12 12 12 12 12 13 14 15 15 15 16 16 16 16 18 18 17 17 18 18 18
26 26 26 27 29 27 27 28 29 31 31 31 30 31 30 29 28 26 23 20 18 18 15 13 12 12 12 12 13 12 12 12 12 12 14 14 14 15 16 16 16 16 18 18 17 17 17 18 18
25 27 26 26 26 26 29 26 29 30 31 30 30 30 30 30 29 27 24 22 19 18 17 14 13 12 13 12 12 12 12 12 12 12 13 15 15 15 16 16 17 17 17 18 17 17 17 18 18
25 27 27 26 26 26 26 26 28 31 30 31 31 31 30 30 29 28 26 23 21 20 17 15 12 12 12 12 12 12 13 13 13 13 13 15 15 15 15 16 17 17 17 17 17 17 16 17 18
26 25 25 25 25 24 25 26 28 30 31 30 31 32 31 30 30 29 27 24 22 21 19 15 14 12 12 12 12 12 12 12 13 12 12 14 15 15 15 17 17 16 16 16 16 16 16 16 17
25 24 23 23 23 23 27 26 27 30 30 30 31 31 31 31 30 29 27 26 24 21 20 17 15 14 12 12 12 13 13 12 13 13 13 13 14 14 15 15 16 16 15 15 16 16 15 16 16
24 24 23 22 23 25 27 25 28 30 30 30 31 31 31 30 29 29 28 26 24 22 20 19 17 16 13 12 12 13 14 13 14 14 14 14 13 14 15 16 16 16 16 15 15 16 16 16 16
23 23 25 24 24 24 27 27 29 29 29 30 30 30 30 30 30 29 28 27 25 23 21 20 19 18 16 13 12 13 13 14 14 15 15 15 15 15 14 15 15 15 15 15 16 16 16 16 16
23 25 23 23 21 21 25 26 26 28 28 29 30 30 30 31 31 30 29 28 26 24 22 20 20 19 18 17 14 13 13 14 15 15 16 16 16 16 16 15 15 15 15 15 16 16 16 16 16
22 22 23 25 24 22 23 25 29 27 26 26 28 30 29 29 29 30 30 29 27 25 23 21 20 20 20 19 17 15 15 15 15 15 16 16 16 16 17 17 16 16 16 16 16 16 16 16 16
24 23 23 22 22 24 23 24 27 26 26 26 27 28 29 29 30 29 29 28 27 25 24 22 20 20 20 20 19 17 17 16 16 16 16 16 17 17 17 17 17 17 17 16 16 16 16 16 16
Height
772 772 772 765 770 748 736 730 725 732 732 725 728 734 735 732 739 751 746 749 750 750 753 755 757 761 765 767 768 768 765 768 780 785 789 791 798 800 799 801 806 809 814 817 820 821 823 824 825
771 771 769 755 764 744 721 721 736 727 725 729 731 733 734 738 730 736 742 748 750 750 752 757 757 760 764 766 769 770 775 771 774 783 790 791 799 802 803 803 808 810 814 820 821 824 825 828 829
768 769 763 752 747 742 727 723 726 727 730 731 733 728 737 737 736 742 749 751 752 752 753 755 756 759 762 763 767 771 770 776 778 783 791 793 800 803 805 806 809 811 816 821 823 827 828 830 833
766 763 758 758 743 723 727 719 722 727 724 728 730 737 731 738 742 746 749 750 752 753 753 754 756 759 760 763 764 766 770 773 780 784 790 795 800 804 808 807 812 816 819 821 827 829 830 834 836
761 750 752 744 736 717 721 718 722 729 730 731 731 737 734 733 744 748 749 750 752 753 753 753 756 759 762 763 763 764 768 775 780 785 790 794 801 806 810 811 814 817 820 825 828 830 833 838 840
754 745 751 741 722 713 718 716 722 727 728 728 735 733 730 736 741 746 750 749 750 751 753 755 755 757 762 761 764 761 766 773 782 787 790 794 800 808 814 815 816 819 822 825 830 832 838 842 843
751 741 744 729 723 717 721 717 727 726 727 727 725 740 728 731 740 745 748 749 749 751 751 752 754 756 759 761 762 762 764 772 780 785 789 794 801 810 816 817 817 820 823 827 833 836 842 844 846
742 740 739 725 728 725 711 723 719 727 725 726 728 734 730 733 742 745 747 747 747 748 749 750 753 756 760 761 765 760 755 773 779 787 790 794 802 806 818 820 820 821 826 829 834 839 845 845 848
737 749 740 723 721 718 712 727 712 715 725 723 725 727 730 738 741 743 743 745 745 748 748 748 752 755 760 763 767 772 776 776 785 789 792 797 806 811 818 821 822 825 827 831 836 843 845 846 851
741 743 729 705 707 714 712 719 716 717 719 720 720 722 731 737 738 740 740 744 746 747 749 749 751 755 759 764 766 771 771 783 790 795 798 801 806 813 819 822 824 827 830 835 839 844 846 850 853
733 738 713 708 713 709 714 716 712 718 722 714 720 719 724 734 735 739 739 742 745 748 750 750 753 755 760 763 772 771 780 787 793 795 799 802 808 814 819 824 826 830 834 839 844 846 849 850 854
735 722 717 709 711 717 720 712 715 713 714 712 718 719 723 728 732 736 738 741 745 747 750 752 753 755 758 761 768 774 782 785 790 797 802 807 811 815 821 825 828 832 836 841 843 847 848 851 854
726 722 712 710 711 715 715 717 716 711 704 710 717 721 721 725 729 734 739 743 746 748 750 752 752 756 758 758 763 773 782 786 792 793 804 806 811 816 820 825 828 832 835 841 843 846 848 851 854
714 718 716 708 709 711 718 716 711 707 701 710 716 718 721 725 728 730 737 741 745 749 750 752 753 755 759 763 766 771 776 783 789 797 804 806 812 816 821 825 827 830 833 839 841 844 848 851 854
715 722 715 709 705 709 709 716 712 696 697 707 711 714 718 723 727 729 732 738 744 746 750 752 754 757 760 763 766 770 773 777 785 795 802 807 811 816 819 823 824 827 831 837 840 845 847 849 854
723 721 727 703 701 700 706 721 699 685 698 703 704 708 715 719 722 726 730 735 741 745 748 752 754 756 760 763 765 767 769 771 783 793 800 807 810 815 819 822 824 827 830 836 840 843 845 848 852
720 726 718 708 686 695 706 711 693 689 698 700 698 702 709 714 718 722 728 733 739 743 746 751 753 757 760 762 765 766 768 773 785 793 799 805 810 816 819 821 824 827 831 835 838 842 844 847 849
720 715 710 703 688 698 701 702 694 685 691 696 694 693 700 707 711 719 726 731 736 741 745 749 753 756 760 763 766 768 771 777 786 793 799 803 810 815 817 820 823 828 831 835 838 842 844 846 847
707 699 699 692 681 696 700 696 686 682 680 687 691 690 694 699 704 714 724 730 733 739 743 747 752 755 759 763 767 771 775 782 788 795 799 803 808 813 812 819 823 828 830 833 837 841 842 845 846
710 709 708 693 688 704 700 694 682 677 676 678 681 684 687 693 699 710 720 727 730 735 740 745 750 754 758 763 768 771 776 782 787 792 796 800 805 809 813 818 824 828 828 832 836 838 840 842 844
707 710 709 707 691 699 701 698 685 673 669 672 674 675 676 684 693 704 714 722 729 731 736 741 747 752 756 762 767 772 778 785 789 792 796 799 803 809 811 815 822 824 825 829 833 835 836 837 841
711 697 703 706 707 713 683 709 681 670 669 670 672 673 674 676 684 694 706 715 724 727 732 738 743 749 754 758 764 767 771 777 782 788 792 796 801 804 808 815 818 820 823 825 829 831 832 833 835
703 696 697 706 709 707 700 707 685 664 668 664 661 663 667 671 676 684 696 707 715 721 727 733 739 745 750 754 759 765 769 774 780 785 790 795 799 801 807 810 813 816 819 822 824 827 829 830 831
693 703 702 705 705 718 703 701 688 670 660 661 655 653 657 665 671 678 688 700 708 715 722 729 735 740 745 750 755 760 765 770 775 781 785 789 794 799 802 804 807 811 814 817 820 823 825 827 826
698 705 719 723 716 717 689 696 686 658 656 657 658 654 653 659 667 674 682 691 700 709 715 723 729 734 740 745 750 755 760 765 770 775 778 783 787 791 793 797 801 804 809 812 815 817 820 821 822
699 700 708 722 711 695 677 694 674 653 652 654 652 651 653 661 665 670 676 685 693 701 708 714 721 728 734 739 744 750 755 760 765 769 773 777 779 783 786 791 795 797 801 805 808 809 813 815 815
696 702 690 698 698 698 674 676 658 655 658 655 655 654 656 659 663 668 671 678 686 694 702 707 712 719 726 733 740 744 749 753 757 762 766 770 773 777 781 785 787 791 794 797 800 802 805 806 807
691 680 701 697 720 722 685 682 684 665 663 657 655 654 654 652 654 660 666 671 680 687 696 703 706 710 716 724 731 737 742 747 752 756 757 760 765 770 774 777 781 784 787 790 794 795 797 799 800
697 696 687 683 690 704 706 684 650 663 670 672 663 655 658 661 663 658 660 665 674 682 689 696 701 704 708 714 721 728 733 739 744 748 751 753 758 762 766 769 773 776 779 783 786 786 788 790 791
676 684 686 691 700 686 691 691 661 667 671 671 670 664 661 660 658 660 660 664 670 677 684 690 695 698 701 706 712 716 722 728 732 736 739 745 749 754 757 761 764 767 770 773 775 777 779 781 782
Wind_Speed
10 8 11 10 7 8 16 1 6 6 7 3 4 6 15 13 12 6 4 0 1 9 13 16 21 24 26 26 27 31 36 35 31 29 30 30 26 30 31 31 29 28 25 23 22 22 23 24 28
10 10 12 8 8 13 6 6 8 0 6 4 3 6 9 10 5 4 1 2 4 10 15 17 19 20 25 27 25 29 29 36 35 32 30 29 28 27 30 32 30 28 28 22 22 22 23 24 28
9 11 10 8 14 14 8 8 1 3 2 4 4 4 5 6 4 4 3 1 4 8 15 19 20 21 22 26 28 31 33 33 34 34 32 32 30 31 31 33 30 30 27 24 23 23 23 25 26
11 9 9 11 17 12 7 1 2 5 7 3 4 6 5 2 1 2 2 1 5 9 17 20 20 22 22 27 32 35 36 36 35 33 36 34 32 32 31 31 30 30 27 25 22 22 22 24 24
15 8 13 17 17 11 3 9 1 6 3 4 3 6 5 10 3 1 1 3 6 11 16 21 23 25 22 25 32 35 39 38 35 38 36 35 33 30 29 29 30 29 28 25 23 22 24 23 27
9 10 14 15 15 8 5 5 6 5 7 7 6 8 9 7 3 5 4 6 5 10 16 19 21 26 23 25 23 24 35 37 37 38 36 33 30 29 30 31 32 31 28 26 23 24 24 25 26
16 13 16 19 14 4 7 3 9 9 7 8 8 10 9 6 3 2 5 6 7 8 12 15 17 20 22 23 24 28 38 42 41 38 35 32 33 32 28 32 32 29 27 26 24 25 24 25 26
13 14 21 19 12 12 9 7 10 8 10 2 6 7 10 9 2 3 5 7 8 7 10 9 12 15 17 18 18 20 28 35 40 37 36 36 36 34 28 29 29 27 27 27 26 25 24 24 22
11 14 16 19 13 11 10 8 13 2 10 8 7 8 7 2 4 5 6 6 7 8 8 14 9 10 12 13 18 17 20 26 31 35 34 36 31 31 29 25 28 28 28 27 25 24 23 22 22
16 13 22 12 9 8 3 11 11 8 11 11 10 7 5 5 6 7 6 6 6 8 9 14 17 15 10 9 15 15 22 15 27 27 30 32 31 27 23 24 28 28 28 26 25 23 23 21 19
20 20 20 8 10 7 9 10 12 11 12 6 9 7 4 7 5 5 6 5 3 3 5 14 20 23 13 10 15 18 25 26 25 26 31 30 27 24 22 26 28 26 26 23 21 23 18 18 18
21 21 19 16 9 11 14 13 12 12 12 4 5 3 5 7 5 3 3 3 2 4 4 7 26 18 23 22 21 23 23 28 30 30 31 28 28 23 24 24 25 26 24 22 20 17 16 16 15
22 21 19 16 13 11 13 14 15 16 14 5 5 5 6 5 3 4 3 2 4 2 5 9 27 21 20 23 26 27 26 28 33 34 31 28 22 25 25 26 27 25 23 21 20 15 15 15 14
20 18 22 15 15 16 16 16 18 13 7 5 7 8 6 7 5 5 6 6 6 6 8 10 20 23 24 23 25 30 33 39 40 39 35 29 24 24 25 26 27 26 24 21 19 16 16 16 15
17 21 17 20 18 16 15 20 19 20 11 9 10 10 8 8 9 8 6 9 6 8 11 12 14 19 29 29 29 30 36 42 45 40 35 26 25 25 24 26 26 25 23 21 17 16 16 16 16
15 20 18 19 19 19 15 17 15 6 7 10 11 11 10 10 10 9 7 8 11 10 10 11 12 16 19 22 24 24 34 40 40 41 31 28 25 22 22 22 21 20 18 19 18 18 17 17 17
17 15 21 18 15 10 12 15 15 8 8 10 12 11 11 11 11 10 9 10 13 13 15 13 13 16 19 20 23 25 33 40 40 29 28 27 25 22 20 20 18 20 20 19 18 17 17 17 17
17 18 18 17 13 12 16 17 16 12 10 11 14 12 12 13 13 14 11 10 12 14 17 14 14 18 21 23 24 25 31 32 31 24 23 26 25 26 21 16 15 19 18 18 17 17 17 17 17
20 18 15 13 5 8 14 16 14 16 13 13 13 13 12 13 11 14 14 12 14 15 16 18 20 22 25 26 26 27 27 29 30 23 24 25 23 22 23 18 15 19 17 17 17 17 16 16 15
24 24 15 14 2 7 14 16 18 14 14 13 13 14 13 12 13 13 17 16 16 17 17 21 22 27 26 26 26 29 28 25 30 26 23 25 17 18 24 18 20 23 18 17 19 18 17 16 16
21 22 18 17 7 9 15 18 19 14 16 11 11 12 11 13 15 15 16 19 17 20 21 21 26 29 24 26 23 25 24 25 20 25 26 23 18 21 22 21 25 25 20 22 21 20 18 17 17
21 18 19 16 15 13 12 15 17 19 19 15 15 14 13 13 15 16 17 19 21 20 20 21 25 29 26 30 26 29 27 28 30 32 31 30 19 18 26 27 24 23 24 20 22 22 20 17 18
21 15 15 16 17 15 17 9 12 13 13 15 15 16 15 13 15 17 19 22 22 22 23 23 24 28 28 29 31 27 27 31 32 28 30 31 25 29 28 30 27 24 24 23 22 23 23 22 19
16 11 11 13 14 15 18 15 11 12 14 10 11 11 13 13 14 16 20 22 22 22 24 24 26 28 30 30 32 32 27 28 28 31 31 31 30 31 38 31 28 27 25 24 24 25 24 24 22
18 14 9 11 12 14 14 13 14 4 4 6 5 7 12 10 12 14 18 18 23 25 26 26 27 28 31 33 33 34 33 33 32 34 37 37 27 27 30 31 30 27 28 28 28 26 27 26 23
20 18 9 14 11 14 19 8 11 7 2 4 9 10 1 7 9 13 18 17 24 27 29 29 30 28 31 34 34 34 34 33 34 35 35 36 36 35 34 32 33 32 29 29 30 29 29 31 24
17 21 21 18 10 7 7 10 12 3 7 6 6 6 8 9 10 11 15 20 25 28 30 30 30 29 31 32 33 33 34 33 34 33 35 38 38 36 34 35 35 34 32 30 29 27 27 25 25
22 12 18 11 12 12 10 11 8 9 10 5 3 8 4 2 9 12 12 15 26 28 29 30 29 31 31 32 33 34 36 36 34 34 35 36 37 37 37 38 37 35 33 32 31 29 28 28 27
15 18 13 15 14 9 12 9 5 10 11 6 6 7 11 9 6 7 7 13 23 26 29 30 30 30 31 33 33 35 37 37 38 37 38 37 36 40 40 39 39 39 37 36 35 34 34 33 32
18 21 20 10 9 12 8 2 8 8 7 6 6 2 5 5 4 5 3 7 15 23 26 29 30 32 32 32 33 35 35 38 38 41 39 40 38 37 37 39 35 37 38 38 37 36 35 35 36
Wind_Direction
211 217 244 250 245 230 268 210 322 233 217 105 347 322 334 335 315 341 59 92 165 179 171 176 179 185 193 189 182 177 174 168 167 164 159 155 153 141 140 139 134 127 122 121 122 117 115 114 119
203 218 241 273 252 254 251 93 218 334 40 23 289 279 273 296 16 322 272 136 190 200 172 187 189 188 189 192 188 180 170 163 165 161 161 155 155 151 145 138 137 131 125 125 123 125 123 120 128
217 221 264 232 234 265 330 113 211 134 189 262 277 167 320 319 39 353 44 1 214 222 186 198 204 192 188 200 191 182 169 167 161 161 159 154 154 149 145 140 135 128 129 130 128 128 127 133 135
197 212 243 255 262 244 285 358 173 231 181 232 321 285 152 67 326 60 12 278 223 227 205 209 207 200 201 199 194 180 174 168 165 159 157 154 151 149 148 140 139 134 133 130 133 131 132 144 138
230 259 251 245 259 264 250 288 327 283 290 325 266 299 279 135 142 225 278 253 246 230 219 214 214 211 200 205 197 185 174 168 162 160 158 155 153 154 151 145 141 135 135 135 134 137 140 142 138
222 239 254 258 250 216 225 243 234 230 254 250 241 288 302 102 164 187 253 256 248 234 232 222 213 218 210 220 216 205 175 166 164 162 159 156 155 156 149 142 141 142 142 143 144 141 147 148 141
239 240 253 277 282 242 207 99 247 252 272 255 65 295 302 173 146 223 225 243 239 243 228 237 228 217 207 221 204 219 170 165 165 161 159 159 156 153 152 150 149 148 145 142 146 143 151 149 147
239 254 269 266 269 255 178 202 258 261 282 30 340 268 325 65 186 231 230 245 238 214 232 237 229 216 206 204 211 228 175 172 162 159 157 156 155 154 159 154 152 148 146 142 144 148 155 149 150
236 258 253 256 243 253 138 244 263 326 278 205 215 268 353 327 259 270 243 244 232 226 208 211 183 173 200 202 189 180 201 178 160 159 156 154 154 152 162 157 155 150 144 143 146 155 153 148 148
231 233 250 278 282 237 226 219 251 251 242 237 234 228 226 266 271 288 241 243 216 224 196 200 196 189 158 124 173 162 149 166 164 159 157 154 154 157 160 159 158 151 146 147 150 152 144 134 139
223 244 269 264 272 247 276 278 267 265 268 303 336 316 162 245 271 279 281 240 193 194 188 204 199 204 173 162 152 165 159 172 170 162 160 154 160 153 162 162 156 148 148 143 146 142 145 145 151
232 248 255 275 224 238 252 262 283 273 271 16 290 316 201 217 234 265 251 185 208 163 169 194 199 197 192 172 168 166 174 167 163 162 158 163 168 158 162 158 157 151 151 153 152 162 154 155 158
233 243 263 253 244 235 260 267 270 277 292 161 253 219 207 230 229 195 188 164 143 180 136 162 191 184 192 198 196 181 181 168 166 164 169 169 163 164 162 166 162 162 162 164 162 169 161 161 163
242 242 260 245 240 233 243 261 269 264 270 234 214 218 198 221 217 216 189 179 167 138 145 151 173 182 197 207 206 202 189 178 171 170 171 166 173 171 168 173 168 170 169 173 173 169 166 166 163
263 262 257 249 241 239 245 257 252 257 227 227 218 215 209 195 214 223 216 179 175 160 143 155 163 182 196 200 199 192 194 171 175 173 171 182 170 180 172 178 173 174 170 175 176 169 172 168 170
255 243 254 249 224 233 230 259 272 162 187 231 221 207 203 206 205 205 199 201 176 153 152 149 172 182 198 205 204 194 170 156 161 166 175 176 173 180 173 177 173 171 170 176 177 176 178 176 178
237 246 232 249 222 235 210 256 251 145 206 259 227 221 210 207 198 197 191 193 174 170 161 164 161 165 172 181 175 159 152 154 160 168 171 170 174 179 175 169 171 169 170 175 175 182 184 183 183
239 220 243 259 203 206 241 239 258 204 216 235 256 211 209 210 195 193 193 190 184 175 173 176 166 170 170 165 149 136 135 148 163 157 168 161 172 173 162 166 163 173 174 177 182 186 189 189 189
256 263 276 245 223 210 247 254 242 230 229 226 224 235 216 211 194 176 179 190 183 183 177 175 169 168 164 159 153 150 156 166 168 168 171 165 171 180 158 169 182 186 184 186 187 188 188 192 191
242 253 255 266 131 237 264 258 246 238 228 248 224 221 226 206 192 180 178 188 193 186 175 173 171 172 172 167 170 167 165 165 176 170 167 174 184 183 174 173 193 202 192 195 190 191 189 193 191
229 241 247 260 224 229 263 265 256 241 251 232 237 239 221 211 201 187 185 185 195 188 182 177 178 178 175 174 167 167 174 178 183 190 179 177 192 196 186 189 197 203 199 196 196 197 199 195 196
242 232 245 256 258 256 257 256 244 229 232 212 231 230 228 210 202 191 189 191 190 196 183 180 181 183 181 176 175 169 169 176 190 191 194 198 207 201 194 209 208 201 210 207 202 204 206 214 199
244 258 246 234 252 259 258 255 270 270 238 226 235 208 209 219 199 197 189 192 190 187 183 185 180 182 185 185 180 177 185 188 189 189 197 206 211 215 209 217 209 210 211 215 213 209 211 215 224
252 216 246 236 244 241 244 256 268 250 231 209 242 223 195 194 203 198 188 189 189 184 180 182 183 184 186 188 191 187 184 186 185 192 199 208 211 210 211 214 210 213 216 216 218 217 216 222 222
227 200 211 219 223 234 229 231 236 260 354 305 276 239 193 183 202 196 189 189 186 185 184 183 188 189 189 191 193 195 199 192 195 197 200 208 211 209 212 214 212 211 217 220 222 225 221 221 228
209 206 214 215 231 223 216 236 239 224 328 303 269 240 148 186 191 201 196 192 192 189 190 187 188 194 190 194 197 198 202 199 204 202 206 208 212 211 207 209 211 211 213 218 222 223 230 229 225
218 224 233 265 250 277 167 215 254 200 229 224 198 201 197 194 192 206 201 197 198 195 194 194 190 194 195 195 199 200 204 204 206 208 208 213 215 215 218 215 213 213 214 214 217 218 224 224 223
251 228 221 230 245 238 247 192 251 167 196 12 316 184 217 189 205 195 212 205 202 200 198 197 198 195 195 198 200 203 206 208 212 214 213 215 217 218 218 217 217 217 218 220 222 226 230 232 232
213 241 249 230 222 236 236 252 185 94 70 47 329 38 37 24 343 309 231 218 205 205 202 199 202 201 200 197 198 204 208 209 213 216 219 218 216 218 221 220 220 222 224 227 228 232 236 237 238
219 216 230 233 212 235 234 336 130 111 79 39 335 300 12 333 347 10 310 230 207 208 208 204 204 206 206 202 200 202 204 207 212 216 218 219 221 222 222 225 226 227 230 232 233 234 236 239 241